Tracking 21612 objects as of 19-Oct-2020
HD Live streaming from Space Station
objects crossing your sky now

TITAN 34B R/B

Track TITAN 34B R/B now!


NORAD ID: 12446
Int'l Code: 1981-038B
Perigee: 196.7 km
Apogee: 29,100.0 km
Inclination: 63.0 °
Period: 505.5 minutes
Semi major axis: 21019 km
RCS: Unknown
Launch date: April 24, 1981
Source: United States (US)
Launch site: AIR FORCE WESTERN TEST RANGE (AFWTR)

Note: This is a ROCKET BODY
aabbcc
Your satellite tracking list
Your tracking list is empty




NASA's NSSDC Master Catalog

Two Line Element Set (TLE):
1 12446U 81038B   20201.94180532 +.00014156 +11238-5 +64609-3 0  9999
2 12446 063.0347 056.3079 6875406 264.9538 020.0375 02.84887534008908
Source of the keplerian elements: AFSPC